Location: Bourg-d�Oueil
(42.8588°N, 0.4991°E)
Time: 13:03:16
(UTC+00:00)

Celestis-02/Orion 38 - Visible Passes

Search period start: 16 October 2021 00:00
Search period end: 26 October 2021 00:00
Orbit: 775 x 865 km, 108.0° (Epoch: 15 October)

Date Brightness Start Highest point End Pass type
(mag) Time Alt. Az. Time Alt. Az. Time Alt. Az.
16 Oct 6.0 05:17:42 10° ESE 05:22:45 40° NE 05:27:43 10° NNW visible
17 Oct 6.7 04:57:39 10° ESE 05:02:09 27° NE 05:06:34 10° N visible
18 Oct 7.2 04:38:00 10° E 04:41:37 19° NE 04:45:12 10° N visible
19 Oct 7.4 04:18:55 10° ENE 04:21:11 13° NE 04:23:25 10° NNE visible
20 Oct 6.1 05:33:33 10° ESE 05:38:34 40° NE 05:43:31 10° NNW visible
21 Oct 6.7 05:13:31 10° ESE 05:17:58 27° NE 05:22:20 10° N visible
22 Oct 7.1 04:53:53 10° E 04:57:27 18° NE 05:00:58 10° N visible
23 Oct 7.3 04:34:51 10° ENE 04:37:00 12° NE 04:39:09 10° NNE visible
24 Oct 6.1 05:49:25 10° ESE 05:54:24 39° NE 05:59:18 10° NNW visible
25 Oct 6.7 05:29:24 10° ESE 05:33:47 26° NE 05:38:07 10° N visible
